Regional Weather Roundup
Issued by NWS

Home | Current Version | Previous Version | Text Only | Print | Product List | Glossary Off
Versions: 1 2 3 4 5 6 7 8 9 10 11 12 13 14 15 16 17 18 19 20 21 22 23 24 25 26 27 28 29 30 31 32 33 34 35 36 37 38 39 40 41 42 43 44 45 46 47 48 49 50

779
ASUS43 KFSD 271202
RWRSD

WEATHER ROUNDUP FOR SOUTH DAKOTA
NATIONAL WEATHER SERVICE SIOUX FALLS SD
700 AM CDT TUE SEP 27 2016

NOTE: "FAIR" INDICATES FEW OR NO CLOUDS BELOW 12,000 FEET WITH NO
SIGNIFICANT WEATHER AND/OR OBSTRUCTIONS TO VISIBILITY.


SDZ001>005-009-010-012>017-271300-
NORTHWEST AND NORTH CENTRAL SOUTH DAKOTA

CITY           SKY/WX    TMP DP  RH WIND       PRES   REMARKS
BUFFALO          N/A     43  40  89 W3        30.00F
MOBRIDGE       CLEAR     40  36  86 CALM      30.00F
$$

SDZ012>016-024>037-041>051-057-063-072>074-271300-
SOUTHWEST AND SOUTH CENTRAL SOUTH DAKOTA

CITY           SKY/WX    TMP DP  RH WIND       PRES   REMARKS
RAPID CTY ARPT CLEAR     40  38  93 W6        30.09F
PIERRE         CLEAR     44  39  82 W8        30.02F
CUSTER         CLEAR     49  39  68 W6        30.18F
ELLSWORTH AFB  CLEAR     46  40  80 W5        30.08F
PHILIP         CLEAR     43  39  86 W8        30.07F
PINE RIDGE     CLOUDY    32  31  96 CALM      30.13F
WINNER         FAIR      49  39  68 SW7       30.07F HAZE
$$

SDZ004>011-016>023-039-040-271300-
NORTHEAST SOUTH DAKOTA

CITY           SKY/WX    TMP DP  RH WIND       PRES   REMARKS
ABERDEEN       CLEAR     41  35  79 W6        30.00S
WATERTOWN      CLEAR     44  37  76 NW6       29.98S
SISSETON         N/A     42  35  76 NW8       29.95S
$$

SDZ017-020-022-023-036>040-048>070-271300-
SOUTHEAST SOUTH DAKOTA

CITY           SKY/WX    TMP DP  RH WIND       PRES   REMARKS
SIOUX FALLS    CLEAR     45  37  73 W6        30.01S
HURON          CLEAR     40  35  83 W5        30.02R
CHAMBERLAIN    CLEAR     46  42  85 W6        30.05S
MITCHELL       CLEAR     46  39  76 W7        30.03S
YANKTON        CLEAR     45  37  76 CALM      30.03R
$$

ABBREVIATIONS USED IN REMARKS
   TC - TEMPERATURE IN CELSIUS
  WCI - WIND CHILL INDEX
   HX - HEAT INDEX
  VSB - VISIBILITY





USA.gov is the U.S. government's official web portal to all federal, state and local government web resources and services.